Regional Weather Roundup
Issued by NWS

Home | Current Version | Previous Version | Text Only | Print | Product List | Glossary On
Versions: 1 2 3 4 5 6 7 8 9 10 11 12 13 14 15 16 17 18 19 20 21 22 23 24 25 26 27 28
000
ASUS45 KTFX 270910
RWRMT
MONTANA REGIONAL WEATHER ROUNDUP
NATIONAL WEATHER SERVICE GREAT FALLS MT
200 AM MST MON FEB 27 2017

NOTE: "FAIR" INDICATES FEW OR NO CLOUDS BELOW 12000 FEET WITH NO
SIGNIFICANT WEATHER AND/OR OBSTRUCTIONS TO VISIBILITY.

MTZ001>007-043-271000-
WEST OF THE DIVIDE

CITY           SKY/WX    TMP DP  RH WIND       PRES   REMARKS
KALISPELL      CLOUDY    17   9  70 N10       29.64S WCI   5
MISSOULA       LGT SNOW  26  25  96 CALM      29.60S FOG
BUTTE          CLOUDY    18   9  68 CALM      29.52S
MULLAN PASS    FOG       14  13  95 CALM      29.46S VSB 1/4
ANACONDA         N/A     19  14  79 SE5       29.53S
DEER LODGE       N/A     16  12  86 NW3       29.58R
EUREKA           N/A     16  12  86 CALM      29.68S
HAMILTON         N/A     27  19  74 SE9         N/A  WCI  17
LIBBY            N/A     18  16  93 CALM      29.64S
PLAINS           N/A     25  19  77 CALM      29.66S
RONAN            N/A     21  18  88 N8        29.68R WCI  11
THOMPSON FALLS   N/A     26  24  92 CALM      29.69S
$$

MTZ008-052>055-271000-
SOUTHWEST MONTANA

CITY           SKY/WX    TMP DP  RH WIND       PRES   REMARKS
BOZEMAN        CLOUDY    22  15  75 CALM      29.55S
DILLON         CLEAR     17   7  64 SW10      29.54R WCI   5
W YELLOWSTONE  LGT SNOW  16  14  93 S6        29.52F WCI   7
ENNIS          MOCLDY    21  10  63 S13       29.58S WCI   9
THREE FORKS      N/A     19 -15  21 CALM      29.62R
$$

MTZ009-010-012-014-046-048-049-054-271000-
EAST SLOPES AND CENTRAL MONTANA

CITY           SKY/WX    TMP DP  RH WIND       PRES   REMARKS
CUT BANK       LGT SNOW   9   6  88 E5        29.67F FOG
GREAT FALLS    LGT SNOW  15  11  83 N7        29.67S FOG     WCI   5
MALMSTROM AFB  LGT SNOW  14  14 100 N9        29.69S WCI   2
HELENA         LGT SNOW  16  13  88 W8        29.64S FOG     WCI   5
AUGUSTA        FLURRIES   8   6  89 N9        29.63S WCI  -5
BOWMANS CRNR   LGT SNOW   9   6  90 N7        29.62S WCI  -3
CHOTEAU          N/A     10   9  92 NW5       29.69S FOG
CONRAD           N/A     12  10  92 NW2       29.74S
POWER          FLURRIES  11   9  89 N6        29.67S WCI   2
RAYNESFORD     SNOWSHWR  13  10  86 CALM      29.64S
ULM            LGT SNOW  15  13  92 MISG      29.68S
$$

MTZ011-013-016-021-045-047-050-051-271000-
NORTH CENTRAL MONTANA

CITY           SKY/WX    TMP DP  RH WIND       PRES   REMARKS
HAVRE          LGT SNOW  14  11  87 NE9       29.78S FOG     WCI   2
LEWISTOWN      CLOUDY    15  11  83 E5        29.61S
N BAR RANCH    LGT SNOW  12   9  85 NE5       29.63S
CHINOOK          N/A     14  10  85 N6        29.80S WCI   5
DENTON         LGT SNOW  16  14  92 N10       29.63S WCI   3
FORT BENTON      N/A     16  12  86 MISG      29.75S
GEYSER         FLURRIES  13  10  90 NE5       29.63S
GRASS RANGE    LGT SNOW  16  15  95 E6        29.61S WCI   7
JUDITH GAP     LGT SNOW  12   9  88 N12       29.58R WCI  -2
ROY            LGT SNOW  16  15  95 MISG      29.65S
STANFORD       LGT SNOW  13  11  94 N5        29.61S FOG
WINIFRED       LGT SNOW  15  13  95 NE15      29.65S FOG     WCI  -1
$$

MTZ017>020-022>027-061-062-271000-
NORTHEAST MONTANA

CITY           SKY/WX    TMP DP  RH WIND       PRES   REMARKS
GLASGOW        LGT SNOW  17  13  84 NE9       29.77F FOG     WCI   6
JORDAN           N/A     19  15  84 E7        29.72S WCI  10
SIDNEY         CLOUDY    21  16  81 NE5       29.79F
WOLF POINT     LGT SNOW  17  12  80 NE3       29.80F
PLENTYWOOD       N/A      9   1  72 N10       29.80R WCI  -6
POPLAR           N/A     16  10  79 N9        29.80F WCI   4
SCOBEY           N/A      8  -2  64 NW6       29.78R WCI  -2
$$

MTZ028>42-056>058-271000-
SOUTHCENTRAL AND SOUTHEAST MONTANA

CITY           SKY/WX    TMP DP  RH WIND       PRES   REMARKS
BAKER          CLOUDY    21  17  84 E12       29.70F WCI   9
BILLINGS       MOCLDY    21  17  84 NE7       29.60S WCI  12
LIVINGSTON     CLOUDY    27  13  55 SW13G28   29.52F WCI  16
MILES CITY     CLOUDY    24  19  81 NE10      29.67F WCI  14
BIG TIMBER     CLOUDY    19  16  86 N13       29.58S WCI   7
FORSYTH          N/A     23  21  93 NE7       29.65F WCI  15
HARLOWTON      FLURRIES  16  13  87 NE8       29.59S WCI   5
LAUREL           N/A     22  11  62 CALM      29.61S
$$

REGIONAL REPORTS...DAKOTAS

CITY           SKY/WX    TMP DP  RH WIND       PRES   REMARKS
WILLISTON      CLOUDY    12   7  80 N7        29.81F WCI   1
MINOT          CLOUDY    14  10  84 SW12      29.80F WCI   0
DICKINSON      CLOUDY    16  13  88 S5        29.74S
BEACH            N/A    N/A N/A N/A MISG        N/A
CROSBY         CLOUDY    10   5  79 NW10      29.84S WCI  -3
TIOGA            N/A      7   7 100 N6        29.80F WCI  -3
WATFORD CITY   MOCLDY    16  14  93 CALM      29.79F
BISMARCK       CLOUDY    11   8  88 NE6       29.85F WCI   1
GRAND FORKS    CLOUDY     8   1  73 S6        29.91S WCI  -2
FARGO          CLOUDY    21  15  78 S5        29.92S
BUFFALO SD       N/A     23  20  88 SE6       29.64F WCI  16
RAPID CITY     CLOUDY    24  16  71 SE8       29.70F WCI  15
$$

REGIONAL REPORTS...WYOMING/IDAHO/WASHINGTON

CITY           SKY/WX    TMP DP  RH WIND       PRES   REMARKS
GILLETTE       CLOUDY    24  10  55 SW9       29.61S WCI  14
SHERIDAN       CLOUDY    20  11  68 SE10G17   29.59S WCI   9
BUFFALO WY     CLOUDY    18   4  54 CALM      29.57S
CODY           CLEAR     19   8  62 SE9       29.55F WCI   8
YELLOWSTONE LA   N/A      9   7  92 CALM      29.50F
IDAHO FALLS    CLOUDY    22  21  96 S6        29.62R WCI  14
SALMON         CLOUDY    25  12  58 CALM      29.61R
BOISE          CLOUDY    31  22  69 SE13      29.64S WCI  21
SPOKANE        FOG       26  25  96 SW8       29.64S VSB 1   WCI  18
$$

REGIONAL REPORTS...ALBERTA

CITY           SKY/WX    TMP DP  RH WIND       PRES   REMARKS
EDMONTON       CLEAR      3  -4  72 SW6       29.69F WCI  -8
CALGARY        PTCLDY     3   0  85 S7        29.66F WCI  -9
LETHBRIDGE     FLURRIES   7   3  85 E5        29.74F
MEDICINE HAT   CLEAR      0  -4  85 S3        29.81F
WATERTON GATE    N/A      5   1  85 NE1         N/A
MILK RIVER       N/A      7   5  92 E6          N/A  WCI  -3
ONEFOUR          N/A      5   1  85 NE7         N/A  WCI  -7
$$

REGIONAL REPORTS...SASKATCHEWAN

CITY           SKY/WX    TMP DP  RH WIND       PRES   REMARKS
SWIFT CURRENT  CLOUDY     1  -4  78 CALM      29.77S
REGINA         PTCLDY     1  -2  85 W8        29.83R WCI -12
SASKATOON      CLEAR     -8 -13  77 W3        29.86F
CYPRESS HILLS    N/A     -4  -8  84 N2          N/A
VAL MARIE        N/A      9   5  85 N6          N/A  WCI  -1
ASSINIBOIA       N/A      0  -6  78 SW7         N/A  WCI -13
$$




USA.gov is the U.S. government's official web portal to all federal, state and local government web resources and services.